Location: Allie Creek
(37.5926°N, 89.8526°W)
Time: 18:47:51
(UTC+00:00)

Cosmos 2322 - Pass Details

Date: 26 September 2023
Orbit: 842 x 852 km, 71.0° (Epoch: 07 December)

Event Time Altitude Azimuth Distance (km) Brightness Sun altitude
Rises 11:11:40 0° 336° (NNW) 3,420 6.7 -8.5°
Reaches altitude 10° 11:14:07 10° 336° (NNW) 2,480 5.9 -8.0°
Maximum altitude 11:19:49 80° 250° (WSW) 863 3.7 -6.9°
Drops below altitude 10° 11:25:28 10° 164° (SSE) 2,457 6.3 -5.8°
Sets 11:27:53 0° 163° (SSE) 3,387 7.0 -5.3°
